| time (UTC) | temp C | wind direction | speed KPH | gust KPH | rain 1hr cm | rain 24hr cm | rain mn cm | humidity % | barometer mb |
| 20260509043104 | 9 | 9 | 4.8 | 8.0 | 0.00 | 0.00 | 0.00 | 45 | 1017.4 |
| 20260509041604 | 9 | 9 | 4.8 | 9.7 | 0.00 | 0.00 | 0.00 | 44 | 1017.2 |
| 20260509040605 | 10 | 9 | 4.8 | 11.3 | 0.00 | 0.00 | 0.00 | 43 | 1017.1 |
| 20260509040104 | 10 | 10 | 8.0 | 16.1 | 0.00 | 0.00 | 0.00 | 43 | 1017.1 |
| 20260509034604 | 10 | 9 | 6.4 | 11.3 | 0.00 | 0.00 | 0.00 | 43 | 1017.0 |
| 20260509034104 | 10 | 9 | 3.2 | 11.3 | 0.00 | 0.00 | 0.00 | 44 | 1016.9 |
| 20260509033604 | 10 | 9 | 3.2 | 4.8 | 0.00 | 0.00 | 0.00 | 46 | 1016.8 |
| 20260509031604 | 10 | 9 | 3.2 | 4.8 | 0.00 | 0.00 | 0.00 | 44 | 1016.5 |
| 20260509031104 | 11 | 9 | 4.8 | 4.8 | 0.00 | 0.00 | 0.00 | 43 | 1016.5 |
| 20260509030604 | 11 | 9 | 4.8 | 4.8 | 0.00 | 0.00 | 0.00 | 42 | 1016.4 |
| 20260509030104 | 11 | 9 | 3.2 | 4.8 | 0.00 | 0.00 | 0.00 | 40 | 1016.5 |
| 20260509024105 | 12 | 5 | 0.0 | 3.2 | 0.00 | 0.00 | 0.00 | 36 | 1016.1 |
| 20260509023104 | 12 | 10 | 3.2 | 8.0 | 0.00 | 0.00 | 0.00 | 36 | 1015.8 |
| 20260509021604 | 13 | 15 | 1.6 | 4.8 | 0.00 | 0.00 | 0.00 | 34 | 1015.9 |
| 20260509020604 | 13 | 15 | 1.6 | 4.8 | 0.00 | 0.00 | 0.00 | 33 | 1015.9 |
| 20260509020104 | 13 | 15 | 3.2 | 11.3 | 0.00 | 0.00 | 0.00 | 33 | 1015.9 |
| 20260509014604 | 14 | 14 | 3.2 | 14.5 | 0.00 | 0.00 | 0.00 | 32 | 1015.9 |
| 20260509013604 | 14 | 12 | 4.8 | 14.5 | 0.00 | 0.00 | 0.00 | 32 | 1015.8 |
| 20260509013104 | 15 | 15 | 3.2 | 16.1 | 0.00 | 0.00 | 0.00 | 31 | 1015.9 |
| 20260509011604 | 15 | 15 | 6.4 | 16.1 | 0.00 | 0.00 | 0.00 | 30 | 1016.0 |
| 20260509011104 | 15 | 14 | 3.2 | 14.5 | 0.00 | 0.00 | 0.00 | 30 | 1016.1 |
| 20260509010604 | 15 | 14 | 6.4 | 12.9 | 0.00 | 0.00 | 0.00 | 29 | 1016.1 |
| 20260509010104 | 15 | 14 | 6.4 | 22.5 | 0.00 | 0.00 | 0.00 | 29 | 1016.0 |
| 20260509004603 | 16 | 14 | 3.2 | 14.5 | 0.00 | 0.00 | 0.00 | 30 | 1015.9 |
| 20260509004104 | 16 | 11 | 6.4 | 16.1 | 0.00 | 0.00 | 0.00 | 30 | 1016.1 |
| 20260509003604 | 16 | 15 | 8.0 | 16.1 | 0.00 | 0.00 | 0.00 | 28 | 1016.1 |
| 20260509003104 | 16 | 15 | 8.0 | 19.3 | 0.00 | 0.00 | 0.00 | 28 | 1016.2 |
| 20260509001604 | 16 | 9 | 3.2 | 16.1 | 0.00 | 0.00 | 0.00 | 28 | 1016.2 |
| 20260509001104 | 16 | 14 | 3.2 | 19.3 | 0.00 | 0.00 | 0.00 | 28 | 1016.3 |
| 20260509000604 | 16 | 14 | 4.8 | 19.3 | 0.00 | 0.00 | 0.00 | 28 | 1016.4 |
| 20260509000104 | 16 | 11 | 9.7 | 27.4 | 0.00 | 0.00 | 0.00 | 27 | 1016.5 |
| 20260508234604 | 17 | 11 | 4.8 | 16.1 | 0.00 | 0.00 | 0.00 | 27 | 1016.5 |
| 20260508234104 | 17 | 15 | 4.8 | 19.3 | 0.00 | 0.00 | 0.00 | 27 | 1016.4 |
| 20260508233603 | 17 | 14 | 4.8 | 16.1 | 0.00 | 0.00 | 0.00 | 27 | 1016.5 |
| 20260508233104 | 17 | 14 | 4.8 | 22.5 | 0.00 | 0.00 | 0.00 | 26 | 1016.5 |
| 20260508231604 | 17 | 14 | 8.0 | 16.1 | 0.00 | 0.00 | 0.00 | 26 | 1016.7 |
| 20260508231104 | 17 | 14 | 9.7 | 29.0 | 0.00 | 0.00 | 0.00 | 25 | 1016.6 |
| 20260508230604 | 17 | 14 | 9.7 | 19.3 | 0.00 | 0.00 | 0.00 | 26 | 1016.7 |
| 20260508230104 | 17 | 15 | 9.7 | 24.1 | 0.00 | 0.00 | 0.00 | 25 | 1016.7 |
| 20260508224603 | 17 | 13 | 8.0 | 20.9 | 0.00 | 0.00 | 0.00 | 27 | 1016.5 |
| 20260508224103 | 17 | 13 | 8.0 | 27.4 | 0.00 | 0.00 | 0.00 | 25 | 1016.7 |
| 20260508223605 | 18 | 14 | 9.7 | 19.3 | 0.00 | 0.00 | 0.00 | 25 | 1016.7 |
| 20260508221603 | 18 | 14 | 8.0 | 24.1 | 0.00 | 0.00 | 0.00 | 25 | 1016.6 |
| 20260508221104 | 18 | 13 | 9.7 | 20.9 | 0.00 | 0.00 | 0.00 | 25 | 1016.8 |
| 20260508220604 | 18 | 13 | 8.0 | 22.5 | 0.00 | 0.00 | 0.00 | 26 | 1016.6 |
| 20260508220105 | 18 | 13 | 9.7 | 25.7 | 0.00 | 0.00 | 0.00 | 24 | 1016.7 |
| 20260508214605 | 18 | 14 | 14.5 | 29.0 | 0.00 | 0.00 | 0.00 | 24 | 1016.8 |
| 20260508214105 | 18 | 13 | 9.7 | 32.2 | 0.00 | 0.00 | 0.00 | 26 | 1016.8 |
| 20260508213605 | 18 | 13 | 9.7 | 29.0 | 0.00 | 0.00 | 0.00 | 26 | 1016.7 |
| 20260508213105 | 18 | 14 | 9.7 | 29.0 | 0.00 | 0.00 | 0.00 | 26 | 1016.7 |
| 20260508211605 | 18 | 13 | 11.3 | 27.4 | 0.00 | 0.00 | 0.00 | 27 | 1017.0 |
| 20260508210605 | 18 | 12 | 8.0 | 29.0 | 0.00 | 0.00 | 0.00 | 26 | 1016.8 |
| 20260508210105 | 18 | 13 | 8.0 | 24.1 | 0.00 | 0.00 | 0.00 | 26 | 1016.9 |
| 20260508204106 | 18 | 14 | 11.3 | 25.7 | 0.00 | 0.00 | 0.00 | 27 | 1016.7 |
| 20260508203605 | 18 | 13 | 6.4 | 20.9 | 0.00 | 0.00 | 0.00 | 27 | 1016.8 |
| 20260508203105 | 18 | 12 | 12.9 | 29.0 | 0.00 | 0.00 | 0.00 | 27 | 1016.7 |
| 20260508201605 | 18 | 13 | 9.7 | 19.3 | 0.00 | 0.00 | 0.00 | 26 | 1016.7 |
| 20260508201105 | 18 | 10 | 8.0 | 22.5 | 0.00 | 0.00 | 0.00 | 28 | 1016.7 |
| 20260508200605 | 18 | 12 | 8.0 | 25.7 | 0.00 | 0.00 | 0.00 | 28 | 1016.6 |
| 20260508200105 | 18 | 13 | 8.0 | 35.4 | 0.00 | 0.00 | 0.00 | 28 | 1016.6 |
| 20260508194105 | 18 | 14 | 9.7 | 22.5 | 0.00 | 0.00 | 0.00 | 31 | 1016.8 |
| 20260508193605 | 18 | 11 | 8.0 | 20.9 | 0.00 | 0.00 | 0.00 | 28 | 1016.6 |
| 20260508193105 | 18 | 13 | 9.7 | 25.7 | 0.00 | 0.00 | 0.00 | 27 | 1016.8 |
| 20260508191105 | 18 | 13 | 11.3 | 27.4 | 0.00 | 0.00 | 0.00 | 30 | 1016.7 |
| 20260508190605 | 18 | 13 | 8.0 | 27.4 | 0.00 | 0.00 | 0.00 | 30 | 1016.7 |
| 20260508190105 | 18 | 13 | 8.0 | 25.7 | 0.00 | 0.00 | 0.00 | 31 | 1016.8 |
| 20260508184605 | 18 | 13 | 9.7 | 24.1 | 0.00 | 0.00 | 0.00 | 30 | 1016.8 |
| 20260508184105 | 18 | 13 | 9.7 | 32.2 | 0.00 | 0.00 | 0.00 | 31 | 1016.8 |
| 20260508183605 | 18 | 12 | 8.0 | 20.9 | 0.00 | 0.00 | 0.00 | 30 | 1016.9 |
| 20260508183105 | 18 | 12 | 8.0 | 20.9 | 0.00 | 0.00 | 0.00 | 31 | 1017.0 |
| 20260508181604 | 17 | 13 | 8.0 | 24.1 | 0.00 | 0.00 | 0.00 | 31 | 1017.2 |
| 20260508180604 | 17 | 14 | 9.7 | 25.7 | 0.00 | 0.00 | 0.00 | 31 | 1017.3 |
| 20260508180105 | 17 | 14 | 12.9 | 27.4 | 0.00 | 0.00 | 0.00 | 30 | 1017.6 |
| 20260508174605 | 16 | 14 | 6.4 | 16.1 | 0.00 | 0.00 | 0.00 | 34 | 1017.7 |
| 20260508174105 | 16 | 14 | 9.7 | 16.1 | 0.00 | 0.00 | 0.00 | 32 | 1017.8 |
| 20260508173105 | 15 | 14 | 8.0 | 22.5 | 0.00 | 0.00 | 0.00 | 30 | 1017.9 |
| 20260508171605 | 15 | 12 | 8.0 | 19.3 | 0.00 | 0.00 | 0.00 | 33 | 1018.1 |
| 20260508171105 | 15 | 14 | 9.7 | 22.5 | 0.00 | 0.00 | 0.00 | 31 | 1018.1 |
| 20260508170105 | 15 | 12 | 8.0 | 20.9 | 0.00 | 0.00 | 0.00 | 30 | 1018.2 |
| 20260508164605 | 15 | 13 | 8.0 | 19.3 | 0.00 | 0.00 | 0.00 | 33 | 1018.3 |
| 20260508164105 | 15 | 14 | 8.0 | 19.3 | 0.00 | 0.00 | 0.00 | 31 | 1018.3 |
| 20260508163604 | 15 | 11 | 4.8 | 14.5 | 0.00 | 0.00 | 0.00 | 32 | 1018.2 |
| 20260508161605 | 14 | 14 | 8.0 | 27.4 | 0.00 | 0.00 | 0.00 | 33 | 1018.2 |
| 20260508161105 | 14 | 13 | 6.4 | 11.3 | 0.00 | 0.00 | 0.00 | 34 | 1018.1 |
| 20260508160605 | 14 | 14 | 4.8 | 12.9 | 0.00 | 0.00 | 0.00 | 33 | 1018.1 |
| 20260508160105 | 13 | 12 | 8.0 | 20.9 | 0.00 | 0.00 | 0.00 | 34 | 1018.3 |
| 20260508154605 | 14 | 14 | 4.8 | 14.5 | 0.00 | 0.00 | 0.00 | 36 | 1018.2 |
| 20260508154105 | 13 | 13 | 3.2 | 16.1 | 0.00 | 0.00 | 0.00 | 36 | 1018.2 |
| 20260508153604 | 13 | 14 | 9.7 | 16.1 | 0.00 | 0.00 | 0.00 | 34 | 1018.1 |
| 20260508153105 | 13 | 12 | 4.8 | 11.3 | 0.00 | 0.00 | 0.00 | 39 | 1018.0 |
| 20260508151605 | 12 | 14 | 4.8 | 9.7 | 0.00 | 0.00 | 0.00 | 47 | 1018.1 |
| 20260508151104 | 11 | 13 | 3.2 | 4.8 | 0.00 | 0.00 | 0.00 | 49 | 1018.2 |
| 20260508150604 | 11 | 13 | 3.2 | 8.0 | 0.00 | 0.00 | 0.00 | 49 | 1018.3 |
| 20260508150105 | 10 | 13 | 3.2 | 4.8 | 0.00 | 0.00 | 0.00 | 49 | 1018.5 |
| 20260508144604 | 9 | 11 | 3.2 | 4.8 | 0.00 | 0.00 | 0.00 | 51 | 1018.5 |
| 20260508143604 | 8 | 11 | 1.6 | 4.8 | 0.00 | 0.00 | 0.00 | 53 | 1018.6 |
| 20260508143104 | 8 | 11 | 3.2 | 4.8 | 0.00 | 0.00 | 0.00 | 52 | 1018.7 |
| 20260508141605 | 7 | 12 | 1.6 | 3.2 | 0.00 | 0.00 | 0.00 | 56 | 1018.6 |
| 20260508141105 | 7 | 12 | 0.0 | 3.2 | 0.00 | 0.00 | 0.00 | 59 | 1018.6 |
| 20260508140605 | 7 | 14 | 0.0 | 3.2 | 0.00 | 0.00 | 0.00 | 60 | 1018.6 |
| 20260508140104 | 7 | 14 | 0.0 | 1.6 | 0.00 | 0.00 | 0.00 | 61 | 1018.7 |
| 20260508134604 | 6 | 14 | 1.6 | 4.8 | 0.00 | 0.00 | 0.00 | 59 | 1018.7 |
| 20260508134104 | 7 | 15 | 1.6 | 3.2 | 0.00 | 0.00 | 0.00 | 59 | 1018.6 |
| 20260508133604 | 7 | 9 | 0.0 | 1.6 | 0.00 | 0.00 | 0.00 | 61 | 1018.6 |
| 20260508133105 | 7 | 9 | 1.6 | 4.8 | 0.00 | 0.00 | 0.00 | 60 | 1018.5 |
| 20260508131605 | 6 | 9 | 1.6 | 4.8 | 0.00 | 0.00 | 0.00 | 62 | 1018.4 |
| 20260508131104 | 5 | 9 | 1.6 | 4.8 | 0.00 | 0.00 | 0.00 | 61 | 1018.4 |
| 20260508130605 | 5 | 9 | 3.2 | 9.7 | 0.00 | 0.00 | 0.00 | 60 | 1018.4 |
| 20260508130105 | 4 | 10 | 4.8 | 16.1 | 0.00 | 0.00 | 0.00 | 61 | 1018.4 |
| 20260508124605 | 3 | 9 | 1.6 | 3.2 | 0.00 | 0.00 | 0.00 | 65 | 1018.2 |
| 20260508124105 | 3 | 9 | 3.2 | 4.8 | 0.00 | 0.00 | 0.00 | 64 | 1018.2 |
| 20260508123604 | 3 | 9 | 0.0 | 1.6 | 0.00 | 0.00 | 0.00 | 65 | 1018.2 |
| 20260508123105 | 3 | 9 | 1.6 | 3.2 | 0.00 | 0.00 | 0.00 | 63 | 1018.2 |
| 20260508121605 | 3 | 11 | 0.0 | 3.2 | 0.00 | 0.00 | 0.00 | 63 | 1018.2 |
| 20260508121105 | 3 | 12 | 0.0 | 3.2 | 0.00 | 0.00 | 0.00 | 63 | 1018.1 |
| 20260508120104 | 4 | 9 | 0.0 | 4.8 | 0.00 | 0.00 | 0.00 | 63 | 1018.2 |
| 20260508114604 | 4 | 3 | 1.6 | 4.8 | 0.00 | 0.00 | 0.00 | 65 | 1018.2 |
| 20260508114104 | 3 | 10 | 1.6 | 8.0 | 0.00 | 0.00 | 0.00 | 65 | 1018.2 |
| 20260508113604 | 3 | 9 | 3.2 | 4.8 | 0.00 | 0.00 | 0.00 | 64 | 1018.2 |
| 20260508113105 | 3 | 9 | 3.2 | 4.8 | 0.00 | 0.00 | 0.00 | 67 | 1018.1 |
| 20260508111605 | 3 | 8 | 0.0 | 1.6 | 0.00 | 0.00 | 0.00 | 65 | 1018.3 |
| 20260508110604 | 4 | 0 | 1.6 | 4.8 | 0.00 | 0.00 | 0.00 | 66 | 1018.2 |
| 20260508104605 | 4 | 9 | 1.6 | 3.2 | 0.00 | 0.00 | 0.00 | 65 | 1018.1 |
| 20260508104104 | 4 | 9 | 1.6 | 4.8 | 0.00 | 0.00 | 0.00 | 64 | 1018.1 |
| 20260508103605 | 4 | 9 | 0.0 | 0.0 | 0.00 | 0.00 | 0.00 | 64 | 1018.1 |
| 20260508103105 | 4 | 9 | 0.0 | 4.8 | 0.00 | 0.00 | 0.00 | 64 | 1018.1 |
| 20260508101605 | 4 | 9 | 1.6 | 4.8 | 0.00 | 0.00 | 0.00 | 66 | 1018.0 |
| 20260508101105 | 4 | 9 | 3.2 | 4.8 | 0.00 | 0.00 | 0.00 | 66 | 1017.9 |
| 20260508100605 | 4 | 10 | 3.2 | 9.7 | 0.00 | 0.00 | 0.00 | 66 | 1018.0 |
| 20260508100104 | 4 | 9 | 1.6 | 4.8 | 0.00 | 0.00 | 0.00 | 67 | 1018.0 |
| 20260508094105 | 4 | 9 | 4.8 | 8.0 | 0.00 | 0.00 | 0.00 | 66 | 1018.0 |
| 20260508093605 | 5 | 9 | 3.2 | 8.0 | 0.00 | 0.00 | 0.00 | 66 | 1018.0 |
| 20260508093104 | 5 | 9 | 3.2 | 8.0 | 0.00 | 0.00 | 0.00 | 64 | 1018.0 |
| 20260508090604 | 5 | 9 | 3.2 | 4.8 | 0.00 | 0.00 | 0.00 | 66 | 1018.0 |
| 20260508090105 | 5 | 9 | 4.8 | 8.0 | 0.00 | 0.00 | 0.00 | 65 | 1017.9 |
| 20260508083605 | 4 | 9 | 1.6 | 3.2 | 0.00 | 0.00 | 0.00 | 65 | 1018.1 |
| 20260508083105 | 5 | 9 | 1.6 | 4.8 | 0.00 | 0.00 | 0.00 | 65 | 1018.1 |
| 20260508080605 | 5 | 9 | 3.2 | 4.8 | 0.00 | 0.00 | 0.00 | 65 | 1018.1 |
| 20260508080105 | 5 | 9 | 1.6 | 16.1 | 0.00 | 0.00 | 0.00 | 66 | 1018.2 |
| 20260508074604 | 5 | 10 | 4.8 | 9.7 | 0.00 | 0.00 | 0.00 | 65 | 1018.3 |
| 20260508073605 | 5 | 9 | 3.2 | 4.8 | 0.00 | 0.00 | 0.00 | 65 | 1018.3 |
| 20260508073104 | 5 | 9 | 4.8 | 8.0 | 0.00 | 0.00 | 0.00 | 63 | 1018.4 |
| 20260508071105 | 5 | 9 | 3.2 | 4.8 | 0.00 | 0.00 | 0.00 | 63 | 1018.5 |
| 20260508070105 | 5 | 11 | 1.6 | 4.8 | 0.00 | 0.00 | 0.00 | 61 | 1018.5 |
| 20260508064105 | 6 | 9 | 1.6 | 3.2 | 0.00 | 0.00 | 0.00 | 60 | 1018.5 |
| 20260508063604 | 6 | 9 | 1.6 | 4.8 | 0.00 | 0.00 | 0.00 | 62 | 1018.5 |
| 20260508063104 | 6 | 9 | 3.2 | 8.0 | 0.00 | 0.00 | 0.00 | 61 | 1018.5 |
| 20260508061604 | 6 | 9 | 3.2 | 4.8 | 0.00 | 0.00 | 0.00 | 62 | 1018.6 |
| 20260508061107 | 6 | 10 | 1.6 | 4.8 | 0.00 | 0.00 | 0.00 | 61 | 1018.6 |
| 20260508060104 | 6 | 9 | 3.2 | 8.0 | 0.00 | 0.00 | 0.00 | 60 | 1018.6 |
| 20260508054604 | 7 | 10 | 1.6 | 8.0 | 0.00 | 0.00 | 0.00 | 57 | 1018.6 |
| 20260508054104 | 7 | 9 | 1.6 | 4.8 | 0.00 | 0.00 | 0.00 | 57 | 1018.6 |
| 20260508053605 | 7 | 9 | 3.2 | 4.8 | 0.00 | 0.00 | 0.00 | 56 | 1018.6 |
| 20260508053105 | 7 | 9 | 4.8 | 11.3 | 0.00 | 0.00 | 0.00 | 56 | 1018.5 |
| 20260508051604 | 7 | 9 | 1.6 | 4.8 | 0.00 | 0.00 | 0.00 | 57 | 1018.6 |
| 20260508051104 | 7 | 9 | 1.6 | 4.8 | 0.00 | 0.00 | 0.00 | 57 | 1018.5 |
| 20260508050105 | 7 | 9 | 4.8 | 9.7 | 0.00 | 0.00 | 0.00 | 56 | 1018.6 |
| 20260508044604 | 7 | 9 | 6.4 | 9.7 | 0.00 | 0.00 | 0.00 | 54 | 1018.7 |
| 20260508044104 | 7 | 9 | 1.6 | 8.0 | 0.00 | 0.00 | 0.00 | 56 | 1018.6 |
| 20260508043604 | 8 | 9 | 1.6 | 4.8 | 0.00 | 0.00 | 0.00 | 54 | 1018.5 |